OPS 4682 DEB, 18965

Orbit data source: Space-Track

OPS 4682 DEB, 18965 is space debris in LEO originally from a launch on Sat, 03 Apr 1965 UTC launched from the Air Force Western Test Range (AFWTR). Debris objects in space refer to the collection of defunct objects orbiting the Earth. Examples of debris include non-operational satellites, rocket bodies, and fragments generated from explosions, collisions, or faulty payload assembly.

Loading next visibility...
Identifier
18965, 1965-027AN
Orbit
LEO
Last TLE update
10 hours ago
Origin
Manufacturer
Unknown
Mission
Spacecraft
Bus & Motor
Unknown
Mass
Unknown
Launch date (UTC)
1965-04-03 (60 years ago)
Launch vehicle
Unknown
Launch site
Air Force Western Test Range (AFWTR)
Object type
Payload
Rocket body
Debris
Shape & HBR
Unknown
Radar Cross Section
Small (<0.1 m²)

Expand to show TLE details & history

TLE from 10 hours ago
0 OPS 4682 DEB
1 18965U 65027AN  25169.86205484  .00000567  00000-0  18674-2 0  9995
2 18965  90.2608  17.0254 0043063 320.4107  56.9054 12.99440497903301
Epoch: 2025-06-18T20:41Z
TLE epoch observation values (Epoch: 2025-06-18T20:41:21.538Z)
Latitude
17.71968°
Longitude
159.26474°
Altitude
1,248.728 km
Speed
7.24 km/s
True Right ascension
01h 07m 46s
True Declination
17° 37' 36"
Sunlit
Object was in daylight at epoch
Visualization orbit readout
Latitude
-53.18781°
Longitude
-20.9887°
Altitude
1,282.714 km
Speed
7.215 km/s
Apparent Right ascension
09h 19m 47s
Apparent Declination
-61° 22' 29"
Sunlit
Object is in daylight
Visualization observer readout
Local Sidereal Time
17:52:54
Azimuth
217.917° SW
Elevation
-52.267°
Doppler factor
1
Orbital elements
Apogee altitude
1,294.306 km
Perigee altitude
1,228.509 km
Semi-major axis
7,639.544 km
Eccentricity
0.00431
Inclination
90.2608°
RAAN
17.0254°
Arg. of periapsis
320.4107°
True anomaly
Unknown
Mean anomaly
56.9054°
Eccentric anomaly
Unknown
Mean motion
3.25044 °/min
Orbital period
110.75 mins
BSTAR
0.0018674
Loading maneuver chart data...
Loading SW <> Apogee altitude chart data...
Loading historical data...
Loading historical data...
Loading historical data...
Loading historical data...
Loading historical data...
Loading historical data...
Loading historical data...

OPS 4682 DEB Visibility forecast

Observer location: undefined°, undefined°

Span
Click to sort rows by Start time (UTC) header in descending order
Start Az.
Max El. time (UTC)
Max El. Az.
Max El.
End time (UTC)
End Az.
13 mins2025-06-19 13:20:19.632Z143.487° SSE2025-06-19 13:26:19.632Z81.26° E34.175°2025-06-19 13:33:19.632Z11.196° NNE
11 mins2025-06-19 15:12:19.632Z222.395° SW2025-06-19 15:17:19.632Z280.711° WNW29.868°2025-06-19 15:23:19.632Z338.348° N
11 mins2025-06-20 00:57:19.632Z32.024° NE2025-06-20 01:02:19.632Z83.517° E26.52°2025-06-20 01:08:19.632Z138.485° SSE
13 mins2025-06-20 02:47:19.632Z348.031° N2025-06-20 02:53:19.632Z271.137° WNW38.102°2025-06-20 03:00:19.632Z206.744° SW
|